Year,Month,Day,Hour,Minute,Value (Times are PST for temperature in C)
2007,07,17,00,00,16.00
2007,07,17,00,01,16.10
2007,07,17,00,02,16.10
2007,07,17,00,03,16.10
2007,07,17,00,04,16.10
2007,07,17,00,05,16.10
2007,07,17,00,06,16.10
2007,07,17,00,07,16.10
2007,07,17,00,08,16.10
2007,07,17,00,09,16.10
2007,07,17,00,10,16.10
2007,07,17,00,11,16.10
2007,07,17,00,12,16.10
2007,07,17,00,13,16.10
2007,07,17,00,14,16.00
2007,07,17,00,15,15.80
2007,07,17,00,16,15.70
2007,07,17,00,17,15.50
2007,07,17,00,18,15.50
2007,07,17,00,19,15.40
2007,07,17,00,20,15.30
2007,07,17,00,21,15.30
2007,07,17,00,22,15.20
2007,07,17,00,23,15.20
2007,07,17,00,24,15.20
2007,07,17,00,25,15.20
2007,07,17,00,26,15.20
2007,07,17,00,27,15.20
2007,07,17,00,28,15.20
2007,07,17,00,29,15.20
2007,07,17,00,30,15.30
2007,07,17,00,31,15.30
2007,07,17,00,32,15.30
2007,07,17,00,33,15.20
2007,07,17,00,34,15.10
2007,07,17,00,35,15.10
2007,07,17,00,36,15.10
2007,07,17,00,37,15.00
2007,07,17,00,38,15.00
2007,07,17,00,39,15.10
2007,07,17,00,40,15.10
2007,07,17,00,41,15.10
2007,07,17,00,42,15.00
2007,07,17,00,43,15.00
2007,07,17,00,44,15.00
2007,07,17,00,45,15.00
2007,07,17,00,46,15.00
2007,07,17,00,47,15.10
2007,07,17,00,48,15.20
2007,07,17,00,49,15.30
2007,07,17,00,50,15.40
2007,07,17,00,51,15.50
2007,07,17,00,52,15.60
2007,07,17,00,53,15.80
2007,07,17,00,54,15.80
2007,07,17,00,55,15.90
2007,07,17,00,56,16.10
2007,07,17,00,57,16.10
2007,07,17,00,58,16.10
2007,07,17,00,59,16.00
2007,07,17,01,00,15.90
2007,07,17,01,01,15.80
2007,07,17,01,02,15.80
2007,07,17,01,03,15.70
2007,07,17,01,04,15.70
2007,07,17,01,05,15.70
2007,07,17,01,06,15.70
2007,07,17,01,07,15.70
2007,07,17,01,08,15.70
2007,07,17,01,09,15.60
2007,07,17,01,10,15.60
2007,07,17,01,11,15.60
2007,07,17,01,12,15.60
2007,07,17,01,13,15.60
2007,07,17,01,14,15.60
2007,07,17,01,15,15.60
2007,07,17,01,16,15.70
2007,07,17,01,17,15.80
2007,07,17,01,18,16.00
2007,07,17,01,19,16.10
2007,07,17,01,20,16.20
2007,07,17,01,21,16.30
2007,07,17,01,22,16.40
2007,07,17,01,23,16.40
2007,07,17,01,24,16.40
2007,07,17,01,25,16.40
2007,07,17,01,26,16.30
2007,07,17,01,27,16.20
2007,07,17,01,28,16.10
2007,07,17,01,29,15.80
2007,07,17,01,30,15.60
2007,07,17,01,31,15.40
2007,07,17,01,32,15.30
2007,07,17,01,33,15.20
2007,07,17,01,34,15.00
2007,07,17,01,35,14.70
2007,07,17,01,36,14.50
2007,07,17,01,37,14.30
2007,07,17,01,38,14.20
2007,07,17,01,39,14.10
2007,07,17,01,40,14.10
2007,07,17,01,41,14.00
2007,07,17,01,42,14.00
2007,07,17,01,43,14.00
2007,07,17,01,44,13.90
2007,07,17,01,45,13.90
2007,07,17,01,46,13.90
2007,07,17,01,47,14.00
2007,07,17,01,48,14.00
2007,07,17,01,49,14.00
2007,07,17,01,50,14.10
2007,07,17,01,51,14.20
2007,07,17,01,52,14.20
2007,07,17,01,53,14.30
2007,07,17,01,54,14.20
2007,07,17,01,55,14.00
2007,07,17,01,56,13.90
2007,07,17,01,57,13.80
2007,07,17,01,58,13.70
2007,07,17,01,59,13.60
2007,07,17,02,00,13.50
2007,07,17,02,01,13.40
2007,07,17,02,02,13.30
2007,07,17,02,03,13.30
2007,07,17,02,04,13.30
2007,07,17,02,05,13.20
2007,07,17,02,06,13.20
2007,07,17,02,07,13.10
2007,07,17,02,08,13.10
2007,07,17,02,09,13.10
2007,07,17,02,10,13.10
2007,07,17,02,11,13.10
2007,07,17,02,12,13.10
2007,07,17,02,13,13.10
2007,07,17,02,14,13.10
2007,07,17,02,15,13.20
2007,07,17,02,16,13.20
2007,07,17,02,17,13.20
2007,07,17,02,18,13.30
2007,07,17,02,19,13.30
2007,07,17,02,20,13.30
2007,07,17,02,21,13.30
2007,07,17,02,22,13.40
2007,07,17,02,23,13.40
2007,07,17,02,24,13.50
2007,07,17,02,25,13.50
2007,07,17,02,26,13.60
2007,07,17,02,27,13.70
2007,07,17,02,28,13.70
2007,07,17,02,29,13.80
2007,07,17,02,30,13.90
2007,07,17,02,31,13.90
2007,07,17,02,32,14.00
2007,07,17,02,33,14.10
2007,07,17,02,34,14.10
2007,07,17,02,35,14.20
2007,07,17,02,36,14.30
2007,07,17,02,37,14.40
2007,07,17,02,38,14.50
2007,07,17,02,39,14.50
2007,07,17,02,40,14.60
2007,07,17,02,41,14.60
2007,07,17,02,42,14.70
2007,07,17,02,43,14.80
2007,07,17,02,44,14.80
2007,07,17,02,45,14.80
2007,07,17,02,46,14.80
2007,07,17,02,47,14.90
2007,07,17,02,48,14.90
2007,07,17,02,49,14.90
2007,07,17,02,50,14.90
2007,07,17,02,51,15.00
2007,07,17,02,52,15.00
2007,07,17,02,53,15.00
2007,07,17,02,54,15.00
2007,07,17,02,55,15.00
2007,07,17,02,56,15.00
2007,07,17,02,57,15.00
2007,07,17,02,58,15.10
2007,07,17,02,59,15.10
2007,07,17,03,00,15.10
2007,07,17,03,01,15.10
2007,07,17,03,02,15.10
2007,07,17,03,03,15.10
2007,07,17,03,04,15.10
2007,07,17,03,05,15.10
2007,07,17,03,06,15.10
2007,07,17,03,07,15.20
2007,07,17,03,08,15.20
2007,07,17,03,09,15.10
2007,07,17,03,10,15.00
2007,07,17,03,11,14.90
2007,07,17,03,12,14.80
2007,07,17,03,13,14.70
2007,07,17,03,14,14.50
2007,07,17,03,15,14.30
2007,07,17,03,16,14.10
2007,07,17,03,17,14.00
2007,07,17,03,18,14.00
2007,07,17,03,19,13.90
2007,07,17,03,20,13.90
2007,07,17,03,21,13.90
2007,07,17,03,22,13.90
2007,07,17,03,23,13.80
2007,07,17,03,24,13.90
2007,07,17,03,25,13.90
2007,07,17,03,26,13.90
2007,07,17,03,27,13.90
2007,07,17,03,28,14.00
2007,07,17,03,29,14.00
2007,07,17,03,30,14.10
2007,07,17,03,31,14.20
2007,07,17,03,32,14.20
2007,07,17,03,33,14.30
2007,07,17,03,34,14.40
2007,07,17,03,35,14.50
2007,07,17,03,36,14.60
2007,07,17,03,37,14.80
2007,07,17,03,38,14.90
2007,07,17,03,39,14.90
2007,07,17,03,40,15.00
2007,07,17,03,41,15.10
2007,07,17,03,42,15.30
2007,07,17,03,43,15.30
2007,07,17,03,44,15.40
2007,07,17,03,45,15.40
2007,07,17,03,46,15.50
2007,07,17,03,47,15.60
2007,07,17,03,48,15.60
2007,07,17,03,49,15.70
2007,07,17,03,50,15.70
2007,07,17,03,51,15.70
2007,07,17,03,52,15.80
2007,07,17,03,53,15.80
2007,07,17,03,54,15.80
2007,07,17,03,55,15.80
2007,07,17,03,56,15.80
2007,07,17,03,57,15.80
2007,07,17,03,58,15.80
2007,07,17,03,59,15.80
2007,07,17,04,00,15.80
2007,07,17,04,01,15.80
2007,07,17,04,02,15.80
2007,07,17,04,03,15.80
2007,07,17,04,04,15.80
2007,07,17,04,05,15.80
2007,07,17,04,06,15.70
2007,07,17,04,07,15.60
2007,07,17,04,08,15.50
2007,07,17,04,09,15.40
2007,07,17,04,10,15.30
2007,07,17,04,11,15.30
2007,07,17,04,12,15.40
2007,07,17,04,13,15.40
2007,07,17,04,14,15.50
2007,07,17,04,15,15.60
2007,07,17,04,16,15.60
2007,07,17,04,17,15.70
2007,07,17,04,18,15.70
2007,07,17,04,19,15.70
2007,07,17,04,20,15.70
2007,07,17,04,21,15.70
2007,07,17,04,22,15.70
2007,07,17,04,23,15.70
2007,07,17,04,24,15.70
2007,07,17,04,25,15.70
2007,07,17,04,26,15.60
2007,07,17,04,27,15.60
2007,07,17,04,28,15.60
2007,07,17,04,29,15.60
2007,07,17,04,30,15.60
2007,07,17,04,31,15.60
2007,07,17,04,32,15.60
2007,07,17,04,33,15.60
2007,07,17,04,34,15.60
2007,07,17,04,35,15.60
2007,07,17,04,36,15.50
2007,07,17,04,37,15.40
2007,07,17,04,38,15.20
2007,07,17,04,39,15.10
2007,07,17,04,40,15.10
2007,07,17,04,41,15.00
2007,07,17,04,42,14.90
2007,07,17,04,43,14.90
2007,07,17,04,44,14.90
2007,07,17,04,45,14.90
2007,07,17,04,46,14.90
2007,07,17,04,47,14.80
2007,07,17,04,48,14.70
2007,07,17,04,49,14.50
2007,07,17,04,50,14.40
2007,07,17,04,51,14.30
2007,07,17,04,52,14.20
2007,07,17,04,53,14.20
2007,07,17,04,54,14.10
2007,07,17,04,55,14.10
2007,07,17,04,56,14.10
2007,07,17,04,57,14.10
2007,07,17,04,58,14.10
2007,07,17,04,59,14.10
2007,07,17,05,00,14.20
2007,07,17,05,01,14.20
2007,07,17,05,02,14.20
2007,07,17,05,03,14.30
2007,07,17,05,04,14.30
2007,07,17,05,05,14.40
2007,07,17,05,06,14.50
2007,07,17,05,07,14.60
2007,07,17,05,08,14.70
2007,07,17,05,09,14.80
2007,07,17,05,10,14.90
2007,07,17,05,11,15.00
2007,07,17,05,12,15.00
2007,07,17,05,13,15.10
2007,07,17,05,14,15.10
2007,07,17,05,15,15.20
2007,07,17,05,16,15.20
2007,07,17,05,17,15.20
2007,07,17,05,18,15.30
2007,07,17,05,19,15.30
2007,07,17,05,20,15.30
2007,07,17,05,21,15.30
2007,07,17,05,22,15.30
2007,07,17,05,23,15.30
2007,07,17,05,24,15.30
2007,07,17,05,25,15.30
2007,07,17,05,26,15.40
2007,07,17,05,27,15.40
2007,07,17,05,28,15.40
2007,07,17,05,29,15.50
2007,07,17,05,30,15.50
2007,07,17,05,31,15.50
2007,07,17,05,32,15.50
2007,07,17,05,33,15.50
2007,07,17,05,34,15.50
2007,07,17,05,35,15.50
2007,07,17,05,36,15.40
2007,07,17,05,37,15.40
2007,07,17,05,38,15.30
2007,07,17,05,39,15.30
2007,07,17,05,40,15.30
2007,07,17,05,41,15.30
2007,07,17,05,42,15.30
2007,07,17,05,43,15.30
2007,07,17,05,44,15.30
2007,07,17,05,45,15.30
2007,07,17,05,46,15.30
2007,07,17,05,47,15.30
2007,07,17,05,48,15.30
2007,07,17,05,49,15.30
2007,07,17,05,50,15.40
2007,07,17,05,51,15.40
2007,07,17,05,52,15.40
2007,07,17,05,53,15.40
2007,07,17,05,54,15.40
2007,07,17,05,55,15.40
2007,07,17,05,56,15.50
2007,07,17,05,57,15.50
2007,07,17,05,58,15.50
2007,07,17,05,59,15.50
2007,07,17,06,00,15.40
2007,07,17,06,01,15.40
2007,07,17,06,02,15.40
2007,07,17,06,03,15.40
2007,07,17,06,04,15.40
2007,07,17,06,05,15.40
2007,07,17,06,06,15.40
2007,07,17,06,07,15.40
2007,07,17,06,08,15.40
2007,07,17,06,09,15.40
2007,07,17,06,10,15.50
2007,07,17,06,11,15.50
2007,07,17,06,12,15.40
2007,07,17,06,13,15.40
2007,07,17,06,14,15.40
2007,07,17,06,15,15.40
2007,07,17,06,16,15.40
2007,07,17,06,17,15.40
2007,07,17,06,18,15.40
2007,07,17,06,19,15.40
2007,07,17,06,20,15.40
2007,07,17,06,21,15.40
2007,07,17,06,22,15.40
2007,07,17,06,23,15.40
2007,07,17,06,24,15.40
2007,07,17,06,25,15.30
2007,07,17,06,26,15.30
2007,07,17,06,27,15.30
2007,07,17,06,28,15.30
2007,07,17,06,29,15.30
2007,07,17,06,30,15.30
2007,07,17,06,31,15.30
2007,07,17,06,32,15.30
2007,07,17,06,33,15.30
2007,07,17,06,34,15.30
2007,07,17,06,35,15.30
2007,07,17,06,36,15.20
2007,07,17,06,37,15.20
2007,07,17,06,38,15.10
2007,07,17,06,39,15.10
2007,07,17,06,40,15.10
2007,07,17,06,41,15.00
2007,07,17,06,42,15.00
2007,07,17,06,43,15.00
2007,07,17,06,44,14.90
2007,07,17,06,45,14.90
2007,07,17,06,46,14.80
2007,07,17,06,47,14.80
2007,07,17,06,48,14.80
2007,07,17,06,49,14.70
2007,07,17,06,50,14.70
2007,07,17,06,51,14.60
2007,07,17,06,52,14.50
2007,07,17,06,53,14.50
2007,07,17,06,54,14.50
2007,07,17,06,55,14.50
2007,07,17,06,56,14.40
2007,07,17,06,57,14.40
2007,07,17,06,58,14.30
2007,07,17,06,59,14.20
2007,07,17,07,00,14.20
2007,07,17,07,01,14.20
2007,07,17,07,02,14.20
2007,07,17,07,03,14.20
2007,07,17,07,04,14.20
2007,07,17,07,05,14.20
2007,07,17,07,06,14.20
2007,07,17,07,07,14.20
2007,07,17,07,08,14.20
2007,07,17,07,09,14.20
2007,07,17,07,10,14.20
2007,07,17,07,11,14.10
2007,07,17,07,12,14.10
2007,07,17,07,13,14.20
2007,07,17,07,14,14.20
2007,07,17,07,15,14.20
2007,07,17,07,16,14.20
2007,07,17,07,17,14.20
2007,07,17,07,18,14.20
2007,07,17,07,19,14.20
2007,07,17,07,20,14.30
2007,07,17,07,21,14.30
2007,07,17,07,22,14.40
2007,07,17,07,23,14.40
2007,07,17,07,24,14.50
2007,07,17,07,25,14.50
2007,07,17,07,26,14.60
2007,07,17,07,27,14.60
2007,07,17,07,28,14.70
2007,07,17,07,29,14.70
2007,07,17,07,30,14.70
2007,07,17,07,31,14.70
2007,07,17,07,32,14.70
2007,07,17,07,33,14.70
2007,07,17,07,34,14.70
2007,07,17,07,35,14.70
2007,07,17,07,36,14.70
2007,07,17,07,37,14.70
2007,07,17,07,38,14.70
2007,07,17,07,39,14.60
2007,07,17,07,40,14.60
2007,07,17,07,41,14.50
2007,07,17,07,42,14.50
2007,07,17,07,43,14.50
2007,07,17,07,44,14.50
2007,07,17,07,45,14.40
2007,07,17,07,46,14.40
2007,07,17,07,47,14.40
2007,07,17,07,48,14.40
2007,07,17,07,49,14.40
2007,07,17,07,50,14.40
2007,07,17,07,51,14.40
2007,07,17,07,52,14.40
2007,07,17,07,53,14.40
2007,07,17,07,54,14.40
2007,07,17,07,55,14.40
2007,07,17,07,56,14.40
2007,07,17,07,57,14.40
2007,07,17,07,58,14.40
2007,07,17,07,59,14.40
2007,07,17,08,00,14.40
2007,07,17,08,01,14.30
2007,07,17,08,02,14.30
2007,07,17,08,03,14.20
2007,07,17,08,04,14.20
2007,07,17,08,05,14.10
2007,07,17,08,06,14.10
2007,07,17,08,07,14.00
2007,07,17,08,08,14.00
2007,07,17,08,09,13.90
2007,07,17,08,10,13.90
2007,07,17,08,11,13.90
2007,07,17,08,12,13.90
2007,07,17,08,13,13.90
2007,07,17,08,14,13.90
2007,07,17,08,15,13.90
2007,07,17,08,16,13.90
2007,07,17,08,17,13.90
2007,07,17,08,18,13.90
2007,07,17,08,19,13.90
2007,07,17,08,20,13.80
2007,07,17,08,21,13.80
2007,07,17,08,22,13.80
2007,07,17,08,23,13.80
2007,07,17,08,24,13.70
2007,07,17,08,25,13.70
2007,07,17,08,26,13.70
2007,07,17,08,27,13.70
2007,07,17,08,28,13.80
2007,07,17,08,29,13.80
2007,07,17,08,30,13.80
2007,07,17,08,31,13.80
2007,07,17,08,32,13.90
2007,07,17,08,33,13.90
2007,07,17,08,34,13.90
2007,07,17,08,35,13.90
2007,07,17,08,36,13.80
2007,07,17,08,37,13.80
2007,07,17,08,38,13.70
2007,07,17,08,39,13.60
2007,07,17,08,40,13.60
2007,07,17,08,41,13.50
2007,07,17,08,42,13.50
2007,07,17,08,43,13.30
2007,07,17,08,44,13.20
2007,07,17,08,45,13.10
2007,07,17,08,46,13.00
2007,07,17,08,47,13.00
2007,07,17,08,48,12.90
2007,07,17,08,49,12.90
2007,07,17,08,50,12.80
2007,07,17,08,51,12.80
2007,07,17,08,52,12.80
2007,07,17,08,53,12.80
2007,07,17,08,54,12.80
2007,07,17,08,55,12.80
2007,07,17,08,56,12.80
2007,07,17,08,57,12.80
2007,07,17,08,58,12.80
2007,07,17,08,59,12.80
2007,07,17,09,00,12.80
2007,07,17,09,01,12.80
2007,07,17,09,02,12.80
2007,07,17,09,03,12.80
2007,07,17,09,04,12.70
2007,07,17,09,05,12.70
2007,07,17,09,06,12.70
2007,07,17,09,07,12.80
2007,07,17,09,08,12.80
2007,07,17,09,09,12.80
2007,07,17,09,10,12.80
2007,07,17,09,11,12.80
2007,07,17,09,12,12.80
2007,07,17,09,13,12.90
2007,07,17,09,14,12.90
2007,07,17,09,15,12.90
2007,07,17,09,16,12.90
2007,07,17,09,17,12.90
2007,07,17,09,18,12.90
2007,07,17,09,19,12.90
2007,07,17,09,20,12.90
2007,07,17,09,21,12.90
2007,07,17,09,22,12.90
2007,07,17,09,23,12.90
2007,07,17,09,24,13.00
2007,07,17,09,25,13.10
2007,07,17,09,26,13.20
2007,07,17,09,27,13.30
2007,07,17,09,28,13.40
2007,07,17,09,29,13.40
2007,07,17,09,30,13.50
2007,07,17,09,31,13.60
2007,07,17,09,32,13.60
2007,07,17,09,33,13.70
2007,07,17,09,34,13.70
2007,07,17,09,35,13.60
2007,07,17,09,36,13.60
2007,07,17,09,37,13.70
2007,07,17,09,38,13.70
2007,07,17,09,39,13.70
2007,07,17,09,40,13.70
2007,07,17,09,41,13.70
2007,07,17,09,42,13.70
2007,07,17,09,43,13.70
2007,07,17,09,44,13.80
2007,07,17,09,45,13.80
2007,07,17,09,46,13.80
2007,07,17,09,47,13.80
2007,07,17,09,48,13.80
2007,07,17,09,49,13.80
2007,07,17,09,50,13.80
2007,07,17,09,51,13.80
2007,07,17,09,52,13.90
2007,07,17,09,53,13.90
2007,07,17,09,54,13.90
2007,07,17,09,55,13.90
2007,07,17,09,56,13.90
2007,07,17,09,57,13.90
2007,07,17,09,58,14.00
2007,07,17,09,59,14.00
2007,07,17,10,00,14.00
2007,07,17,10,01,14.00
2007,07,17,10,02,14.00
2007,07,17,10,03,14.10
2007,07,17,10,04,14.10
2007,07,17,10,05,14.10
2007,07,17,10,06,14.20
2007,07,17,10,07,14.20
2007,07,17,10,08,14.20
2007,07,17,10,09,14.20
2007,07,17,10,10,14.20
2007,07,17,10,11,14.20
2007,07,17,10,12,14.20
2007,07,17,10,13,14.30
2007,07,17,10,14,14.30
2007,07,17,10,15,14.30
2007,07,17,10,16,14.30
2007,07,17,10,17,14.30
2007,07,17,10,18,14.40
2007,07,17,10,19,14.40
2007,07,17,10,20,14.40
2007,07,17,10,21,14.50
2007,07,17,10,22,14.50
2007,07,17,10,23,14.40
2007,07,17,10,24,14.40
2007,07,17,10,25,14.40
2007,07,17,10,26,14.30
2007,07,17,10,27,14.40
2007,07,17,10,28,14.40
2007,07,17,10,29,14.50
2007,07,17,10,30,14.50
2007,07,17,10,31,14.60
2007,07,17,10,32,14.60
2007,07,17,10,33,14.60
2007,07,17,10,34,14.60
2007,07,17,10,35,14.60
2007,07,17,10,36,14.70
2007,07,17,10,37,14.70
2007,07,17,10,38,14.80
2007,07,17,10,39,14.80
2007,07,17,10,40,14.80
2007,07,17,10,41,14.80
2007,07,17,10,42,14.80
2007,07,17,10,43,14.90
2007,07,17,10,44,14.90
2007,07,17,10,45,14.90
2007,07,17,10,46,14.90
2007,07,17,10,47,14.80
2007,07,17,10,48,14.70
2007,07,17,10,49,14.60
2007,07,17,10,50,14.40
2007,07,17,10,51,14.20
2007,07,17,10,52,14.10
2007,07,17,10,53,13.90
2007,07,17,10,54,13.70
2007,07,17,10,55,13.60
2007,07,17,10,56,13.50
2007,07,17,10,57,13.40
2007,07,17,10,58,13.40
2007,07,17,10,59,13.40
2007,07,17,11,00,13.40
2007,07,17,11,01,13.40
2007,07,17,11,02,13.30
2007,07,17,11,03,13.30
2007,07,17,11,04,13.30
2007,07,17,11,05,13.30
2007,07,17,11,06,13.30
2007,07,17,11,07,13.30
2007,07,17,11,08,13.30
2007,07,17,11,09,13.30
2007,07,17,11,10,13.30
2007,07,17,11,11,13.30
2007,07,17,11,12,13.30
2007,07,17,11,13,13.40
2007,07,17,11,14,13.50
2007,07,17,11,15,13.50
2007,07,17,11,16,13.60
2007,07,17,11,17,13.60
2007,07,17,11,18,13.70
2007,07,17,11,19,13.60
2007,07,17,11,20,13.50
2007,07,17,11,21,13.30
2007,07,17,11,22,13.20
2007,07,17,11,23,13.10
2007,07,17,11,24,13.00
2007,07,17,11,25,12.90
2007,07,17,11,26,12.80
2007,07,17,11,27,12.80
2007,07,17,11,28,12.70
2007,07,17,11,29,12.70
2007,07,17,11,30,12.70
2007,07,17,11,31,12.70
2007,07,17,11,32,12.80
2007,07,17,11,33,12.80
2007,07,17,11,34,12.90
2007,07,17,11,35,13.00
2007,07,17,11,36,13.10
2007,07,17,11,37,13.20
2007,07,17,11,38,13.30
2007,07,17,11,39,13.30
2007,07,17,11,40,13.30
2007,07,17,11,41,13.30
2007,07,17,11,42,13.30
2007,07,17,11,43,13.30
2007,07,17,11,44,13.30
2007,07,17,11,45,13.20
2007,07,17,11,46,13.10
2007,07,17,11,47,13.00
2007,07,17,11,48,12.90
2007,07,17,11,49,12.80
2007,07,17,11,50,12.70
2007,07,17,11,51,12.70
2007,07,17,11,52,12.60
2007,07,17,11,53,12.60
2007,07,17,11,54,12.60
2007,07,17,11,55,12.60
2007,07,17,11,56,12.60
2007,07,17,11,57,12.60
2007,07,17,11,58,12.60
2007,07,17,11,59,12.60
2007,07,17,12,00,12.50
2007,07,17,12,01,12.40
2007,07,17,12,02,12.40
2007,07,17,12,03,12.40
2007,07,17,12,04,12.50
2007,07,17,12,05,12.50
2007,07,17,12,06,12.50
2007,07,17,12,07,12.50
2007,07,17,12,08,12.50
2007,07,17,12,09,12.50
2007,07,17,12,10,12.50
2007,07,17,12,11,12.60
2007,07,17,12,12,12.60
2007,07,17,12,13,12.60
2007,07,17,12,14,12.60
2007,07,17,12,15,12.60
2007,07,17,12,16,12.60
2007,07,17,12,17,12.60
2007,07,17,12,18,12.70
2007,07,17,12,19,12.70
2007,07,17,12,20,12.80
2007,07,17,12,21,12.80
2007,07,17,12,22,12.80
2007,07,17,12,23,12.90
2007,07,17,12,24,12.90
2007,07,17,12,25,12.90
2007,07,17,12,26,13.00
2007,07,17,12,27,13.10
2007,07,17,12,28,13.10
2007,07,17,12,29,13.20
2007,07,17,12,30,13.30
2007,07,17,12,31,13.30
2007,07,17,12,32,13.30
2007,07,17,12,33,13.30
2007,07,17,12,34,13.30
2007,07,17,12,35,13.40
2007,07,17,12,36,13.40
2007,07,17,12,37,13.50
2007,07,17,12,38,13.60
2007,07,17,12,39,13.60
2007,07,17,12,40,13.60
2007,07,17,12,41,13.70
2007,07,17,12,42,13.70
2007,07,17,12,43,13.70
2007,07,17,12,44,13.70
2007,07,17,12,45,13.70
2007,07,17,12,46,13.60
2007,07,17,12,47,13.60
2007,07,17,12,48,13.50
2007,07,17,12,49,13.50
2007,07,17,12,50,13.40
2007,07,17,12,51,13.40
2007,07,17,12,52,13.40
2007,07,17,12,53,13.40
2007,07,17,12,54,13.50
2007,07,17,12,55,13.50
2007,07,17,12,56,13.50
2007,07,17,12,57,13.50
2007,07,17,12,58,13.30
2007,07,17,12,59,13.30
2007,07,17,13,00,13.20
2007,07,17,13,01,13.10
2007,07,17,13,02,13.10
2007,07,17,13,03,13.10
2007,07,17,13,04,13.10
2007,07,17,13,05,13.00
2007,07,17,13,06,13.00
2007,07,17,13,07,13.00
2007,07,17,13,08,13.00
2007,07,17,13,09,13.00
2007,07,17,13,10,13.00
2007,07,17,13,11,13.00
2007,07,17,13,12,13.00
2007,07,17,13,13,13.00
2007,07,17,13,14,13.00
2007,07,17,13,15,12.90
2007,07,17,13,16,13.00
2007,07,17,13,17,13.00
2007,07,17,13,18,13.00
2007,07,17,13,19,13.00
2007,07,17,13,20,13.00
2007,07,17,13,21,13.00
2007,07,17,13,22,13.00
2007,07,17,13,23,13.10
2007,07,17,13,24,13.20
2007,07,17,13,25,13.20
2007,07,17,13,26,13.20
2007,07,17,13,27,13.30
2007,07,17,13,28,13.30
2007,07,17,13,29,13.40
2007,07,17,13,30,13.50
2007,07,17,13,31,13.50
2007,07,17,13,32,13.60
2007,07,17,13,33,13.60
2007,07,17,13,34,13.60
2007,07,17,13,35,13.60
2007,07,17,13,36,13.70
2007,07,17,13,37,13.70
2007,07,17,13,38,13.70
2007,07,17,13,39,13.70
2007,07,17,13,40,13.80
2007,07,17,13,41,13.80
2007,07,17,13,42,13.90
2007,07,17,13,43,14.00
2007,07,17,13,44,14.00
2007,07,17,13,45,14.00
2007,07,17,13,46,14.00
2007,07,17,13,47,14.10
2007,07,17,13,48,14.20
2007,07,17,13,49,14.20
2007,07,17,13,50,14.20
2007,07,17,13,51,14.20
2007,07,17,13,52,14.20
2007,07,17,13,53,14.30
2007,07,17,13,54,14.30
2007,07,17,13,55,14.40
2007,07,17,13,56,14.50
2007,07,17,13,57,14.50
2007,07,17,13,58,14.60
2007,07,17,13,59,14.70
2007,07,17,14,00,14.70
2007,07,17,14,01,14.70
2007,07,17,14,02,14.80
2007,07,17,14,03,14.80
2007,07,17,14,04,14.80
2007,07,17,14,05,14.80
2007,07,17,14,06,14.90
2007,07,17,14,07,15.00
2007,07,17,14,08,15.00
2007,07,17,14,09,15.10
2007,07,17,14,10,15.10
2007,07,17,14,11,15.10
2007,07,17,14,12,15.20
2007,07,17,14,13,15.20
2007,07,17,14,14,15.20
2007,07,17,14,15,15.30
2007,07,17,14,16,15.30
2007,07,17,14,17,15.30
2007,07,17,14,18,15.30
2007,07,17,14,19,15.30
2007,07,17,14,20,15.40
2007,07,17,14,21,15.30
2007,07,17,14,22,15.30
2007,07,17,14,23,15.40
2007,07,17,14,24,15.40
2007,07,17,14,25,15.50
2007,07,17,14,26,15.60
2007,07,17,14,27,15.50
2007,07,17,14,28,15.60
2007,07,17,14,29,15.60
2007,07,17,14,30,15.70
2007,07,17,14,31,15.70
2007,07,17,14,32,15.80
2007,07,17,14,33,15.80
2007,07,17,14,34,15.80
2007,07,17,14,35,15.80
2007,07,17,14,36,15.80
2007,07,17,14,37,15.90
2007,07,17,14,38,16.00
2007,07,17,14,39,16.10
2007,07,17,14,40,15.90
2007,07,17,14,41,15.80
2007,07,17,14,42,15.80
2007,07,17,14,43,15.90
2007,07,17,14,44,15.80
2007,07,17,14,45,15.80
2007,07,17,14,46,15.80
2007,07,17,14,47,15.80
2007,07,17,14,48,15.80
2007,07,17,14,49,15.80
2007,07,17,14,50,15.80
2007,07,17,14,51,15.80
2007,07,17,14,52,15.90
2007,07,17,14,53,16.00
2007,07,17,14,54,16.10
2007,07,17,14,55,16.20
2007,07,17,14,56,16.30
2007,07,17,14,57,16.30
2007,07,17,14,58,16.40
2007,07,17,14,59,16.40
2007,07,17,15,00,16.40
2007,07,17,15,01,16.40
2007,07,17,15,02,16.50
2007,07,17,15,03,16.60
2007,07,17,15,04,16.60
2007,07,17,15,05,16.60
2007,07,17,15,06,16.70
2007,07,17,15,07,16.70
2007,07,17,15,08,16.80
2007,07,17,15,09,16.90
2007,07,17,15,10,16.90
2007,07,17,15,11,17.00
2007,07,17,15,12,17.00
2007,07,17,15,13,17.00
2007,07,17,15,14,17.00
2007,07,17,15,15,17.00
2007,07,17,15,16,17.00
2007,07,17,15,17,17.00
2007,07,17,15,18,17.00
2007,07,17,15,19,17.10
2007,07,17,15,20,17.10
2007,07,17,15,21,17.10
2007,07,17,15,22,17.10
2007,07,17,15,23,17.00
2007,07,17,15,24,17.00
2007,07,17,15,25,16.90
2007,07,17,15,26,16.80
2007,07,17,15,27,16.80
2007,07,17,15,28,16.80
2007,07,17,15,29,16.80
2007,07,17,15,30,16.90
2007,07,17,15,31,16.90
2007,07,17,15,32,16.90
2007,07,17,15,33,16.90
2007,07,17,15,34,17.00
2007,07,17,15,35,17.00
2007,07,17,15,36,17.10
2007,07,17,15,37,17.20
2007,07,17,15,38,17.20
2007,07,17,15,39,17.20
2007,07,17,15,40,17.30
2007,07,17,15,41,17.30
2007,07,17,15,42,17.30
2007,07,17,15,43,17.40
2007,07,17,15,44,17.50
2007,07,17,15,45,17.60
2007,07,17,15,46,17.60
2007,07,17,15,47,17.60
2007,07,17,15,48,17.50
2007,07,17,15,49,17.50
2007,07,17,15,50,17.60
2007,07,17,15,51,17.70
2007,07,17,15,52,17.80
2007,07,17,15,53,17.80
2007,07,17,15,54,17.90
2007,07,17,15,55,17.90
2007,07,17,15,56,17.90
2007,07,17,15,57,17.80
2007,07,17,15,58,17.80
2007,07,17,15,59,17.80
2007,07,17,16,00,17.80
2007,07,17,16,01,17.90
2007,07,17,16,02,17.90
2007,07,17,16,03,17.90
2007,07,17,16,04,17.90
2007,07,17,16,05,17.90
2007,07,17,16,06,17.90
2007,07,17,16,07,17.90
2007,07,17,16,08,18.00
2007,07,17,16,09,18.10
2007,07,17,16,10,18.20
2007,07,17,16,11,18.20
2007,07,17,16,12,18.10
2007,07,17,16,13,18.10
2007,07,17,16,14,18.10
2007,07,17,16,15,18.00
2007,07,17,16,16,17.90
2007,07,17,16,17,17.80
2007,07,17,16,18,17.80
2007,07,17,16,19,17.80
2007,07,17,16,20,17.80
2007,07,17,16,21,17.80
2007,07,17,16,22,17.80
2007,07,17,16,23,17.80
2007,07,17,16,24,17.70
2007,07,17,16,25,17.70
2007,07,17,16,26,17.70
2007,07,17,16,27,17.60
2007,07,17,16,28,17.70
2007,07,17,16,29,17.70
2007,07,17,16,30,17.80
2007,07,17,16,31,17.80
2007,07,17,16,32,17.80
2007,07,17,16,33,17.70
2007,07,17,16,34,17.70
2007,07,17,16,35,17.80
2007,07,17,16,36,17.80
2007,07,17,16,37,17.80
2007,07,17,16,38,17.80
2007,07,17,16,39,17.70
2007,07,17,16,40,17.60
2007,07,17,16,41,17.50
2007,07,17,16,42,17.60
2007,07,17,16,43,17.60
2007,07,17,16,44,17.50
2007,07,17,16,45,17.50
2007,07,17,16,46,17.40
2007,07,17,16,47,17.40
2007,07,17,16,48,17.30
2007,07,17,16,49,17.30
2007,07,17,16,50,17.30
2007,07,17,16,51,17.40
2007,07,17,16,52,17.40
2007,07,17,16,53,17.50
2007,07,17,16,54,17.50
2007,07,17,16,55,17.50
2007,07,17,16,56,17.50
2007,07,17,16,57,17.50
2007,07,17,16,58,17.50
2007,07,17,16,59,17.40
2007,07,17,17,00,17.40
2007,07,17,17,01,17.30
2007,07,17,17,02,17.30
2007,07,17,17,03,17.30
2007,07,17,17,04,17.30
2007,07,17,17,05,17.30
2007,07,17,17,06,17.30
2007,07,17,17,07,17.30
2007,07,17,17,08,17.40
2007,07,17,17,09,17.40
2007,07,17,17,10,17.50
2007,07,17,17,11,17.50
2007,07,17,17,12,17.60
2007,07,17,17,13,17.70
2007,07,17,17,14,17.80
2007,07,17,17,15,17.90
2007,07,17,17,16,17.90
2007,07,17,17,17,17.90
2007,07,17,17,18,18.10
2007,07,17,17,19,18.20